Alma, GA

4:06 AM EST on January 19, 2017 (GMT -0500)
Bacon County

Weather History for KAMG - April, 2013

Change the Weather History Date:

Thursday, April 11, 2013

  Actual Average Record
Temperature  
Mean Temperature 75 °F 65 °F  
Max Temperature 87 °F 78 °F 91 °F (1962)
Min Temperature 63 °F 53 °F 34 °F (1960)
Degree Days  
Heating Degree Days 0 3  
Month to date heating degree days 44 34  
Since 1 July heating degree days 1571 1623  
Cooling Degree Days 10 3  
Month to date cooling degree days 22 26  
Year to date cooling degree days 55 80  
Growing Degree Days 24 (Base 50)    
Moisture  
Dew Point 66 °F    
Average Humidity 74    
Maximum Humidity 100    
Minimum Humidity 48    
Precipitation  
Precipitation T in 0.11 in 1.59 in (1992)
Month to date precipitation 0.49 1.20  
Year to date precipitation 12.89 14.01  
Snow  
Snow 0.00 in 0.00 in 0.00 in ()
Month to date snowfall 0.0 0.0  
Since 1 July snowfall T 0.1  
Snow Depth 0.00 in    
Sea Level Pressure  
Sea Level Pressure 29.90 in    
Wind  
Wind Speed 7 mph (South)    
Max Wind Speed 17 mph    
Max Gust Speed 23 mph    
Visibility 9 miles    
Events Rain , Thunderstorm    
T = Trace of Precipitation, MM = Missing Value Source: NWS Daily Summary

Daily Weather History Graph

Daily Weather History Graph

Search for Another Location

Airport or City:

Trip Planner

Search our weather history database for the weather conditions in past years. The results will help you decide how hot, cold, wet, or windy it might be!

Date:

Astronomy

Apr. 11, 2013 Rise Set
Actual Time 7:06 AM EDT 7:56 PM EDT
Civil Twilight 6:41 AM EDT 8:21 PM EDT
Nautical Twilight 6:12 AM EDT 8:50 PM EDT
Astronomical Twilight 5:42 AM EDT 9:20 PM EDT
Moon 7:42 AM EDT (4/11) 9:22 PM EDT (4/11)
Length of Visible Light 13h 39m
Length of Day
12h 50m
New Moon, 2% of the Moon is Illuminated
Apr 11
New Moon
Apr 18
First Quarter
Apr 25
Full
May 2
Last Quarter
May 9
New

Hourly Weather History & Observations

Time (EDT) Temp. Heat Index Dew Point Humidity Pressure Visibility Wind Dir Wind Speed Gust Speed Precip Events Conditions
12:53 AM 66.0 °F - 62.1 °F 87% 29.99 in 10.0 mi SSE 4.6 mph - N/A   Clear
1:53 AM 64.9 °F - 62.1 °F 90% 29.99 in 10.0 mi ESE 3.5 mph - N/A   Clear
2:53 AM 64.0 °F - 61.0 °F 90% 29.96 in 9.0 mi ESE 3.5 mph - N/A   Clear
3:53 AM 63.0 °F - 62.1 °F 97% 29.94 in 7.0 mi ESE 3.5 mph - N/A   Partly Cloudy
4:10 AM 64.4 °F - 62.6 °F 94% 29.95 in 7.0 mi SE 3.5 mph - N/A   Mostly Cloudy
4:53 AM 66.9 °F - 64.9 °F 93% 29.94 in 7.0 mi SSE 4.6 mph - N/A   Overcast
5:53 AM 68.0 °F - 66.0 °F 93% 29.94 in 7.0 mi SSE 5.8 mph - N/A   Overcast
6:53 AM 68.0 °F - 66.0 °F 93% 29.95 in 7.0 mi SSE 4.6 mph - N/A   Overcast
7:18 AM 68.0 °F - 66.2 °F 94% 29.97 in 6.0 mi SE 3.5 mph - N/A   Overcast
7:53 AM 68.0 °F - 66.9 °F 96% 29.97 in 6.0 mi SE 3.5 mph - N/A   Overcast
8:53 AM 70.0 °F - 66.9 °F 90% 29.98 in 7.0 mi South 6.9 mph - N/A   Overcast
9:53 AM 72.0 °F - 68.0 °F 87% 29.98 in 9.0 mi South 9.2 mph - N/A   Overcast
10:44 AM 75.2 °F - 68.0 °F 78% 29.98 in 10.0 mi South 9.2 mph - N/A   Overcast
11:51 AM 78.8 °F - 66.2 °F 65% 29.96 in 10.0 mi SSW 12.7 mph - N/A   Overcast
11:53 AM 78.1 °F - 66.9 °F 68% 29.96 in 10.0 mi SSW 10.4 mph 18.4 mph N/A   Overcast
12:05 PM 78.8 °F - 66.2 °F 65% 29.96 in 10.0 mi South 9.2 mph - N/A   Overcast
12:12 PM 78.8 °F - 68.0 °F 69% 29.96 in 10.0 mi South 9.2 mph - N/A   Overcast
1:53 PM 82.9 °F 84.6 °F 64.9 °F 54% 29.91 in 10.0 mi South 15.0 mph 19.6 mph N/A   Mostly Cloudy
2:53 PM 86.0 °F 87.3 °F 64.0 °F 48% 29.87 in 10.0 mi SSE 12.7 mph 18.4 mph N/A   Scattered Clouds
3:53 PM 84.9 °F 85.9 °F 63.0 °F 48% 29.83 in 10.0 mi South 12.7 mph 19.6 mph N/A   Mostly Cloudy
4:24 PM 80.6 °F 82.3 °F 64.4 °F 58% 29.83 in 7.0 mi SSW 16.1 mph 23.0 mph 0.00 in Rain , Thunderstorm Light Thunderstorms and Rain
4:30 PM 75.2 °F - 68.0 °F 78% 29.84 in 2.5 mi WSW 13.8 mph 23.0 mph 0.00 in Rain , Thunderstorm Light Thunderstorms and Rain
4:42 PM 73.4 °F - 68.0 °F 83% 29.83 in 9.0 mi WSW 4.6 mph - 0.00 in Rain , Thunderstorm Light Thunderstorms and Rain
4:53 PM 77.0 °F - 69.1 °F 76% 29.82 in 10.0 mi SW 6.9 mph - 0.00 in   Overcast
5:53 PM 79.0 °F - 70.0 °F 74% 29.81 in 10.0 mi WSW 3.5 mph - N/A   Clear
6:53 PM 75.9 °F - 70.0 °F 82% 29.80 in 10.0 mi SSE 6.9 mph - 0.00 in   Mostly Cloudy
7:53 PM 75.0 °F - 69.1 °F 82% 29.78 in 10.0 mi South 5.8 mph - N/A   Scattered Clouds
8:53 PM 73.9 °F - 69.1 °F 85% 29.78 in 10.0 mi SE 8.1 mph - N/A   Mostly Cloudy
9:53 PM 73.0 °F - 68.0 °F 84% 29.78 in 10.0 mi SE 6.9 mph - N/A   Clear
10:53 PM 73.0 °F - 68.0 °F 84% 29.80 in 10.0 mi SE 5.8 mph - N/A   Scattered Clouds
11:53 PM 72.0 °F - 69.1 °F 91% 29.82 in 9.0 mi SSE 4.6 mph - 0.00 in   Overcast